Time,TemperatureF,DewpointF,PressureIn,WindDirection,WindDirectionDegrees,WindSpeedMPH,WindSpeedGustMPH,Humidity,HourlyPrecipIn,Conditions,Clouds,dailyrainin,SoftwareType,DateUTC
2013-06-15 00:34:00,75.0,75.0,30.02,WNW,287,0.0,-999.0,100,-99.99,,,-99.99,,2013-06-15 04:34:00,
2013-06-15 01:12:00,76.0,76.0,30.02,WNW,288,0.0,-999.0,100,-99.99,,,-99.99,,2013-06-15 05:12:00,
2013-06-15 02:02:00,76.0,7.0,30.03,WSW,246,0.0,-999.0,7,-99.99,,,-99.99,,2013-06-15 06:02:00,
2013-06-15 03:43:00,74.0,74.0,30.03,SSE,163,1.0,-999.0,100,-99.99,,,-99.99,,2013-06-15 07:43:00,
2013-06-15 04:22:00,74.0,74.0,30.03,SSE,165,0.0,-999.0,100,-99.99,,,-99.99,,2013-06-15 08:22:00,
2013-06-15 04:43:00,73.0,73.0,30.03,SSE,165,0.0,-999.0,100,-99.99,,,-99.99,,2013-06-15 08:43:00,
2013-06-15 04:53:00,73.0,73.0,30.03,SSE,165,0.0,-999.0,100,-99.99,,,-99.99,,2013-06-15 08:53:00,
2013-06-15 05:02:00,73.0,73.0,30.03,SSE,165,0.0,-999.0,100,-99.99,,,-99.99,,2013-06-15 09:02:00,
2013-06-15 05:12:00,73.0,73.0,30.03,SSE,165,0.0,-999.0,100,-99.99,,,-99.99,,2013-06-15 09:12:00,
2013-06-15 05:22:00,73.0,73.0,30.04,SSE,165,0.0,-999.0,100,-99.99,,,-99.99,,2013-06-15 09:22:00,
2013-06-15 05:33:00,73.0,73.0,30.04,SSE,165,0.0,-999.0,100,-99.99,,,-99.99,,2013-06-15 09:33:00,
2013-06-15 05:43:00,72.0,72.0,30.04,SSE,165,0.0,-999.0,100,-99.99,,,-99.99,,2013-06-15 09:43:00,
2013-06-15 05:52:00,72.0,72.0,30.04,SSE,166,0.0,-999.0,100,-99.99,,,-99.99,,2013-06-15 09:52:00,
2013-06-15 06:02:00,72.0,72.0,30.04,SSE,166,0.0,-999.0,100,-99.99,,,-99.99,,2013-06-15 10:02:00,
2013-06-15 06:12:00,72.0,72.0,30.04,SSE,165,0.0,-999.0,100,-99.99,,,-99.99,,2013-06-15 10:12:00,
2013-06-15 06:23:00,72.0,72.0,30.05,SSW,193,0.0,-999.0,100,-99.99,,,-99.99,,2013-06-15 10:23:00,
2013-06-15 06:34:00,72.0,72.0,30.05,SSW,193,0.0,-999.0,100,-99.99,,,-99.99,,2013-06-15 10:34:00,
2013-06-15 07:33:00,75.0,75.0,30.07,WSW,237,0.0,-999.0,100,-99.99,,,-99.99,,2013-06-15 11:33:00,
2013-06-15 09:53:00,79.0,79.0,30.14,SW,225,5.0,-999.0,100,-99.99,,,-99.99,,2013-06-15 13:53:00,
2013-06-15 10:22:00,79.0,-2.0,30.14,WSW,238,5.0,-999.0,4,-99.99,,,-99.99,,2013-06-15 14:22:00,
2013-06-15 12:22:00,80.0,46.0,30.15,WSW,240,7.0,-999.0,30,-99.99,,,-99.99,,2013-06-15 16:22:00,
2013-06-15 16:22:00,79.0,54.0,30.13,WSW,253,6.0,-999.0,42,-99.99,,,-99.99,,2013-06-15 20:22:00,
2013-06-15 16:33:00,79.0,54.0,30.13,WSW,253,6.0,-999.0,42,-99.99,,,-99.99,,2013-06-15 20:33:00,
2013-06-15 16:43:00,79.0,55.0,30.12,WNW,301,7.0,-999.0,43,-99.99,,,-99.99,,2013-06-15 20:43:00,
2013-06-15 16:53:00,79.0,55.0,30.12,WNW,301,7.0,-999.0,43,-99.99,,,-99.99,,2013-06-15 20:53:00,
2013-06-15 17:02:00,79.0,55.0,30.12,WSW,238,5.0,-999.0,44,-99.99,,,-99.99,,2013-06-15 21:02:00,
2013-06-15 17:12:00,79.0,55.0,30.12,West,273,5.0,-999.0,44,-99.99,,,-99.99,,2013-06-15 21:12:00,
2013-06-15 17:22:00,79.0,55.0,30.12,WSW,244,7.0,-999.0,44,-99.99,,,-99.99,,2013-06-15 21:22:00,
2013-06-15 17:34:00,79.0,55.0,30.12,WSW,244,7.0,-999.0,44,-99.99,,,-99.99,,2013-06-15 21:34:00,
2013-06-15 17:42:00,79.0,55.0,30.12,West,271,5.0,-999.0,44,-99.99,,,-99.99,,2013-06-15 21:42:00,
2013-06-15 17:52:00,79.0,56.0,30.12,WSW,252,4.0,-999.0,45,-99.99,,,-99.99,,2013-06-15 21:52:00,
2013-06-15 18:01:00,79.0,56.0,30.12,WSW,252,4.0,-999.0,45,-99.99,,,-99.99,,2013-06-15 22:01:00,
2013-06-15 18:11:00,79.0,56.0,30.12,West,260,3.0,-999.0,45,-99.99,,,-99.99,,2013-06-15 22:11:00,
2013-06-15 18:22:00,78.0,55.0,30.12,West,275,5.0,-999.0,45,-99.99,,,-99.99,,2013-06-15 22:22:00,
2013-06-15 18:33:00,78.0,55.0,30.12,West,275,5.0,-999.0,45,-99.99,,,-99.99,,2013-06-15 22:33:00,
2013-06-15 18:43:00,78.0,55.0,30.12,WNW,287,4.0,-999.0,45,-99.99,,,-99.99,,2013-06-15 22:43:00,
2013-06-15 18:53:00,78.0,54.0,30.11,WNW,286,4.0,-999.0,44,-99.99,,,-99.99,,2013-06-15 22:53:00,
2013-06-15 19:02:00,78.0,54.0,30.11,WNW,286,4.0,-999.0,44,-99.99,,,-99.99,,2013-06-15 23:02:00,
2013-06-15 19:12:00,78.0,55.0,30.12,West,265,3.0,-999.0,45,-99.99,,,-99.99,,2013-06-15 23:12:00,
2013-06-15 19:22:00,78.0,55.0,30.12,West,265,3.0,-999.0,45,-99.99,,,-99.99,,2013-06-15 23:22:00,
2013-06-15 19:33:00,78.0,55.0,30.12,WNW,284,3.0,-999.0,45,-99.99,,,-99.99,,2013-06-15 23:33:00,
2013-06-15 19:43:00,77.0,54.0,30.12,West,271,3.0,-999.0,45,-99.99,,,-99.99,,2013-06-15 23:43:00,
2013-06-15 19:53:00,77.0,54.0,30.13,West,265,3.0,-999.0,45,-99.99,,,-99.99,,2013-06-15 23:53:00,
2013-06-15 20:02:00,77.0,54.0,30.13,West,265,3.0,-999.0,45,-99.99,,,-99.99,,2013-06-16 00:02:00,
2013-06-15 20:12:00,76.0,54.0,30.13,West,277,3.0,-999.0,47,-99.99,,,-99.99,,2013-06-16 00:12:00,
2013-06-15 20:22:00,76.0,54.0,30.12,WNW,303,3.0,-999.0,47,-99.99,,,-99.99,,2013-06-16 00:22:00,
2013-06-15 20:34:00,76.0,54.0,30.12,WNW,303,3.0,-999.0,47,-99.99,,,-99.99,,2013-06-16 00:34:00,
2013-06-15 20:43:00,76.0,54.0,30.13,West,272,3.0,-999.0,46,-99.99,,,-99.99,,2013-06-16 00:43:00,
2013-06-15 20:52:00,76.0,54.0,30.12,WNW,294,5.0,-999.0,46,-99.99,,,-99.99,,2013-06-16 00:52:00,
2013-06-15 21:02:00,76.0,54.0,30.12,WNW,294,5.0,-999.0,46,-99.99,,,-99.99,,2013-06-16 01:02:00,
2013-06-15 21:12:00,76.0,53.0,30.12,WNW,302,4.0,-999.0,45,-99.99,,,-99.99,,2013-06-16 01:12:00,
2013-06-15 21:22:00,76.0,53.0,30.13,NW,310,3.0,-999.0,45,-99.99,,,-99.99,,2013-06-16 01:22:00,
2013-06-15 21:33:00,76.0,53.0,30.13,NW,310,3.0,-999.0,45,-99.99,,,-99.99,,2013-06-16 01:33:00,
2013-06-15 21:42:00,76.0,53.0,30.13,WNW,292,5.0,-999.0,45,-99.99,,,-99.99,,2013-06-16 01:42:00,
2013-06-15 21:53:00,76.0,53.0,30.13,WNW,301,5.0,-999.0,45,-99.99,,,-99.99,,2013-06-16 01:53:00,
2013-06-15 22:02:00,76.0,53.0,30.13,WNW,301,5.0,-999.0,45,-99.99,,,-99.99,,2013-06-16 02:02:00,
2013-06-15 22:12:00,76.0,53.0,30.13,NW,319,4.0,-999.0,45,-99.99,,,-99.99,,2013-06-16 02:12:00,
2013-06-15 22:22:00,76.0,52.0,30.14,WNW,303,5.0,-999.0,44,-99.99,,,-99.99,,2013-06-16 02:22:00,
2013-06-15 22:33:00,76.0,52.0,30.14,WNW,303,5.0,-999.0,44,-99.99,,,-99.99,,2013-06-16 02:33:00,
2013-06-15 22:53:00,76.0,51.0,30.14,WNW,296,6.0,-999.0,42,-99.99,,,-99.99,,2013-06-16 02:53:00,